Volver al catálogo

ARIANE 1 DEB

ActivoGTO
NORAD 27732·DEBRIS·🇫🇷 France

Lanzado Dec 24, 1979 desde Guiana Space Centre

Loading…

TLE

EnvejeciendoSource: Space-Track

Época: Sep 14, 2026, 13:11 UTC

1 27732U 79104S   26257.54978685  .00000460  00000-0  73863-1 0  9994
2 27732  16.7540 338.7340 7326007 236.8931  31.8730  1.93238128 87779

Sigue ARIANE 1 DEB en tiempo real con AllMySat

Download on the App Store